[[{"header":{"parameterUnit":"m.s-1","parameterCategory":1,"la1":30.2991,"la2":30.254,"lo1":-89.0895,"lo2":-89.0444,"dy":0.0017,"dx":0.0017,"nx":28,"ny":28,"refTime":"2025-03-23T03:00:00:Z","depth":0,"parameterNumber":2,"parameterNumberName":"U-component_of_WINDS"},"data":[0,0,0,0,0,0,0,0,0,0,0,0,0,0,0,0,0,0,0,0,0,0,0,0,0,0,0,0,0,0,0,0,0,0,0,0,0,0,0,0,0,0,0,0,0,0,0,0,0,0,0,0,0,0,0,0,0,0,-1.0521,-1.0521,0,-1.0494,-1.0493,-1.0493,-1.0469,-1.0469,-1.0469,-1.0469,-1.0439,-1.0439,-1.0438,0,0,0,0,0,0,0,0,0,0,0,0,0,-1.0553,-1.0552,-1.0522,-1.0521,-1.0521,-1.0494,-1.0493,-1.0493,-1.0469,-1.0469,-1.0469,-1.0469,-1.0439,-1.0439,-1.0438,0,0,0,0,0,0,0,0,0,0,0,0,0,-1.0534,-1.0552,-1.0522,-1.0506,-1.0504,-1.0494,-1.0493,-1.0493,-1.047,-1.0469,-1.0469,-1.0468,-1.044,-1.0439,-1.0438,-1.0441,0,0,-1.0435,-1.0435,0,0,0,0,0,0,0,0,-1.0535,-1.0532,-1.0509,-1.0507,-1.0505,-1.0485,-1.0494,-1.0475,-1.047,-1.0483,-1.0469,-1.0468,-1.0455,-1.0452,-1.0448,-1.0439,-1.0438,-1.0435,-1.0435,-1.0435,-1.0434,0,0,0,0,0,0,0,-1.0536,-1.0533,-1.051,-1.0508,-1.0506,-1.05,-1.0497,-1.049,-1.0471,-1.0482,-1.048,-1.0477,-1.0453,-1.0449,-1.0447,-1.0438,-1.0435,-1.0435,-1.0434,-1.0434,-1.0428,-1.0429,0,0,0,0,0,0,-1.054,-1.0535,-1.0511,-1.051,-1.0519,-1.0499,-1.0496,-1.0492,-1.0471,-1.0468,-1.0477,-1.0476,-1.0451,-1.0448,-1.0446,-1.0447,-1.0435,-1.0434,-1.0433,-1.0428,-1.0428,-1.0429,0,0,0,0,0,0,-1.0541,-1.0538,-1.0512,-1.0522,-1.0518,-1.0499,-1.0495,-1.0491,-1.0487,-1.0468,-1.0464,-1.0476,-1.045,-1.0447,-1.0442,-1.0446,-1.0433,-1.0433,-1.0428,-1.0428,-1.0429,-1.045,0,0,0,0,0,0,-1.0542,-1.0539,-1.054,-1.0522,-1.0518,-1.0509,-1.0495,-1.0491,-1.0485,-1.0483,-1.0466,-1.0463,-1.045,-1.0443,-1.0441,-1.0444,-1.0432,-1.0427,-1.0428,-1.0428,-1.0449,-1.0451,-1.0453,0,0,0,0,0,-1.0543,-1.0547,-1.054,-1.0537,-1.0519,-1.051,-1.0507,-1.0493,-1.0486,-1.0487,-1.0474,-1.0463,-1.0446,-1.0443,-1.044,-1.0443,-1.0427,-1.0428,-1.0428,-1.0448,-1.0451,-1.0453,0,0,0,0,0,0,-1.0566,-1.0544,-1.0536,-1.0535,-1.0524,-1.0506,-1.0506,-1.0496,-1.0487,-1.0486,-1.0467,-1.0463,-1.046,-1.0451,-1.0448,-1.0444,-1.0435,-1.0435,-1.045,-1.0453,-1.0455,-1.0457,-1.0431,0,0,0,0,0,-1.0571,-1.0565,-1.0547,-1.0547,-1.0542,-1.0525,-1.0521,-1.051,-1.0499,-1.0494,-1.0481,-1.047,-1.0462,-1.0457,-1.0448,-1.0447,-1.0443,-1.0448,-1.045,-1.0452,-1.0452,-1.045,-1.0452,-1.0431,-1.0431,-1.0431,0,0,-1.058,-1.0568,-1.0566,-1.0551,-1.0542,-1.0536,-1.0522,-1.0517,-1.0512,-1.0493,-1.0487,-1.0478,-1.0464,-1.046,-1.0458,-1.0453,-1.0457,-1.0453,-1.0455,-1.0454,-1.0451,-1.0453,-1.0455,-1.0432,-1.0432,-1.0432,0,0,-1.0596,-1.0586,-1.0585,-1.0576,-1.0562,-1.055,-1.055,-1.0533,-1.0526,-1.052,-1.0505,-1.0499,-1.0486,-1.0476,-1.0469,-1.048,-1.0469,-1.0478,-1.0489,-1.0487,-1.0489,-1.049,-1.0493,-1.0495,-1.0478,-1.0478,-1.0478,0,-1.061,-1.0601,-1.0586,-1.0581,-1.0575,-1.0557,-1.0556,-1.0547,-1.0531,-1.0527,-1.0521,-1.0503,-1.0493,-1.0487,-1.0489,-1.0485,-1.0483,-1.048,-1.049,-1.0491,-1.0492,-1.0495,-1.0496,-1.0479,-1.0479,-1.0479,-1.0479,0,-1.0619,-1.0613,-1.0614,-1.0599,-1.0592,-1.059,-1.0573,-1.0568,-1.0558,-1.0547,-1.054,-1.0527,-1.0515,-1.0513,-1.0503,-1.0505,-1.0502,-1.0493,-1.0483,-1.0495,-1.0498,-1.0499,-1.0481,-1.0481,-1.048,-1.048,0,0,-1.0648,-1.0624,-1.0624,-1.0617,-1.06,-1.0595,-1.0591,-1.0579,-1.0575,-1.0564,-1.056,-1.0549,-1.054,-1.0533,-1.0521,-1.052,-1.0528,-1.0511,-1.051,-1.0514,-1.0528,-1.0535,-1.0536,-1.0521,-1.0521,-1.0521,-1.0529,0,-1.066,-1.0652,-1.0638,-1.0634,-1.0628,-1.0611,-1.0607,-1.0596,-1.0585,-1.0578,-1.0566,-1.0558,-1.0548,-1.0543,-1.0541,-1.0528,-1.0531,-1.0527,-1.0516,-1.0515,-1.052,-1.0538,-1.0545,-1.0554,-1.053,-1.053,-1.053,0,-1.0674,-1.0664,-1.066,-1.0642,-1.0639,-1.0636,-1.0624,-1.0617,-1.0604,-1.0596,-1.0587,-1.0575,-1.0569,-1.0559,-1.055,-1.0548,-1.0542,-1.0535,-1.0535,-1.0533,-1.0524,-1.0536,-1.0556,-1.0557,-1.0532,-1.0532,-1.0532,0,-1.0695,-1.068,-1.0676,-1.067,-1.065,-1.0648,-1.0639,-1.0625,-1.0619,-1.0608,-1.0604,-1.0592,-1.0586,-1.0577,-1.0561,-1.0556,-1.0553,-1.0543,-1.0546,-1.0547,-1.0546,-1.0547,-1.0565,-1.0543,-1.0543,-1.0543,-1.0543,0,-1.071,-1.0708,-1.0685,-1.0682,-1.0679,-1.0662,-1.0659,-1.0649,-1.0636,-1.0631,-1.0615,-1.061,-1.059,-1.0582,-1.057,-1.0563,-1.0561,-1.0554,-1.055,-1.0555,-1.0556,-1.0551,-1.055,-1.0544,-1.0544,-1.0543,-1.0543,0,-1.0733,-1.0718,-1.0712,-1.0693,-1.0688,-1.0686,-1.067,-1.0666,-1.0654,-1.0647,-1.0644,-1.0625,-1.0615,-1.0599,-1.0584,-1.0576,-1.0572,-1.0566,-1.0576,-1.0574,-1.0578,-1.0578,-1.0594,-1.0595,-1.0573,-1.0573,-1.0574,0,-1.0744,-1.0742,-1.0722,-1.0718,-1.0709,-1.0702,-1.0695,-1.0678,-1.0672,-1.0656,-1.0654,-1.0642,-1.0633,-1.0617,-1.0602,-1.059,-1.0584,-1.059,-1.0582,-1.0587,-1.0584,-1.0584,-1.0583,-1.0593,-1.0593,-1.0593,-1.0593,0,-1.0764,-1.0756,-1.0748,-1.0736,-1.0729,-1.0719,-1.0708,-1.0705,-1.0685,-1.0679,-1.0668,-1.0661,-1.0645,-1.0634,-1.062,-1.061,-1.0598,-1.0596,-1.0596,-1.0601,-1.0607,-1.0603,-1.0581,-1.0596,-1.0596,-1.0595,-1.0595,-1.0595,-1.0781,-1.0778,-1.0764,-1.0755,-1.0745,-1.0735,-1.073,-1.0717,-1.0709,-1.0695,-1.0685,-1.0675,-1.066,-1.064,-1.0631,-1.0623,-1.0617,-1.0618,-1.0617,-1.0618,-1.0619,-1.0608,-1.062,-1.062,-1.062,-1.062,-1.062,0,-1.08,-1.079,-1.0782,-1.0767,-1.0759,-1.0749,-1.0736,-1.073,-1.0722,-1.071,-1.07,-1.0688,-1.0676,-1.066,-1.0647,-1.0643,-1.0638,-1.0641,-1.0641,-1.0638,-1.0625,-1.0626,-1.0646,-1.0646,-1.0646,-1.0646,-1.0646,-1.0646,-1.0809,-1.0804,-1.0794,-1.0783,-1.0773,-1.0763,-1.0757,-1.0747,-1.0737,-1.0724,-1.0715,-1.0704,-1.069,-1.0676,-1.0665,-1.066,-1.0656,-1.0661,-1.0654,-1.0642,-1.064,-1.0637,-1.0638,-1.066,-1.066,-1.0668,-1.0668,-1.0668]},{"header":{"parameterUnit":"m.s-1","parameterCategory":1,"la1":30.2991,"la2":30.254,"lo1":-89.0895,"lo2":-89.0444,"dy":0.0017,"dx":0.0017,"nx":28,"ny":28,"refTime":"2025-03-23T03:00:00:Z","depth":0,"parameterNumber":3,"parameterNumberName":"V-component_of_WINDS"},"data":[0,0,0,0,0,0,0,0,0,0,0,0,0,0,0,0,0,0,0,0,0,0,0,0,0,0,0,0,0,0,0,0,0,0,0,0,0,0,0,0,0,0,0,0,0,0,0,0,0,0,0,0,0,0,0,0,0,0,2.0022,2.0023,0,2.0197,2.0199,2.0201,2.0188,2.0185,2.0183,2.018,2.0364,2.0371,2.0378,0,0,0,0,0,0,0,0,0,0,0,0,0,1.9679,1.9685,2.0021,2.0024,2.0026,2.0197,2.0199,2.0202,2.0188,2.0185,2.0182,2.0179,2.0361,2.037,2.0379,0,0,0,0,0,0,0,0,0,0,0,0,0,1.9838,1.9687,2.0021,2.004,2.0043,2.0196,2.0199,2.0202,2.0189,2.0185,2.0181,2.0177,2.0359,2.0369,2.038,2.0527,0,0,2.0414,2.0419,0,0,0,0,0,0,0,0,1.9829,1.9851,2.0035,2.0039,2.0043,2.0166,2.0146,2.0311,2.019,2.0134,2.018,2.0175,2.0302,2.0317,2.0359,2.0536,2.0544,2.0415,2.0421,2.0426,2.0429,0,0,0,0,0,0,0,1.9818,1.9843,2.0091,2.0037,2.0042,2.0041,2.0059,2.0177,2.0238,2.0138,2.0138,2.0159,2.0303,2.0348,2.0363,2.0546,2.0414,2.0424,2.0431,2.0435,2.0854,2.0859,0,0,0,0,0,0,1.9802,1.9834,2.0085,2.0096,1.9924,2.005,2.007,2.0131,2.0236,2.0249,2.0162,2.0157,2.0331,2.035,2.0369,2.055,2.0426,2.0436,2.0443,2.085,2.0855,2.086,0,0,0,0,0,0,1.9795,1.9825,2.0078,1.9965,1.9997,2.006,2.0128,2.0136,2.0181,2.0254,2.0265,2.0196,2.0329,2.0354,2.0488,2.0556,2.0441,2.0451,2.0845,2.0852,2.0858,2.091,0,0,0,0,0,0,1.9785,1.9822,1.9878,1.9967,2.0003,2.0193,2.0132,2.0143,2.02,2.0196,2.029,2.0301,2.0328,2.0472,2.0499,2.0569,2.046,2.0839,2.0848,2.0856,2.0903,2.0918,2.0931,0,0,0,0,0,1.9773,1.9887,1.9881,1.9911,2.0074,2.0197,2.0218,2.0245,2.0205,2.0263,2.0309,2.0298,2.0544,2.0486,2.0516,2.059,2.0835,2.0845,2.0855,2.0897,2.0915,2.0931,0,0,0,0,0,0,1.9806,1.9898,1.9893,2.0038,2.011,2.0194,2.0267,2.0264,2.0349,2.0342,2.0372,2.0394,2.0529,2.0573,2.0507,2.0739,2.0684,2.0701,2.0705,2.0724,2.0737,2.0724,2.0469,0,0,0,0,0,1.9829,1.992,1.9997,2.0118,2.0153,2.0204,2.0259,2.0273,2.0349,2.038,2.0436,2.0511,2.0605,2.0667,2.0757,2.0909,2.093,2.0975,2.0989,2.1,2.1015,2.11,2.1121,2.0894,2.0894,2.0893,0,0,1.988,1.9942,1.9998,2.0126,2.0183,2.0277,2.023,2.0332,2.0403,2.0396,2.0526,2.057,2.0656,2.0799,2.0866,2.084,2.1082,2.1013,2.1022,2.103,2.1112,2.1134,2.1153,2.0901,2.0899,2.0898,0,0,2.0021,2.0076,2.0183,2.0241,2.0328,2.0361,2.0386,2.0472,2.0501,2.0631,2.0628,2.0713,2.0874,2.0936,2.0988,2.1153,2.1146,2.1181,2.1256,2.1338,2.1356,2.1372,2.1432,2.1453,2.1195,2.1196,2.1196,0,2.0073,2.0215,2.0239,2.0342,2.0399,2.0395,2.0505,2.056,2.0672,2.0713,2.0682,2.0884,2.0942,2.1101,2.1141,2.1183,2.1214,2.1171,2.1351,2.1367,2.1383,2.144,2.1463,2.1199,2.1199,2.1198,2.1198,0,2.0275,2.0374,2.045,2.0557,2.0623,2.0728,2.077,2.0834,2.0842,2.0879,2.1013,2.1082,2.1186,2.1225,2.1235,2.1386,2.1368,2.1344,2.129,2.1408,2.1462,2.1485,2.1205,2.1203,2.1202,2.1201,0,0,2.0443,2.0561,2.0589,2.0638,2.0733,2.081,2.0916,2.1017,2.1072,2.115,2.124,2.1377,2.1355,2.1415,2.1432,2.1504,2.1631,2.1472,2.1474,2.15,2.1803,2.1821,2.1846,2.1627,2.1631,2.1635,2.1796,0,2.0594,2.078,2.0805,2.0971,2.1063,2.1061,2.1153,2.1223,2.126,2.1344,2.1385,2.1482,2.1446,2.1482,2.1553,2.16,2.1693,2.1589,2.1713,2.1718,2.1693,2.1875,2.1894,2.2044,2.1818,2.1821,2.1824,0,2.0795,2.0877,2.1052,2.1135,2.1174,2.1257,2.1352,2.1432,2.1511,2.1533,2.16,2.1608,2.1719,2.1659,2.1814,2.1743,2.1795,2.1826,2.1833,2.1847,2.1779,2.1895,2.2092,2.2115,2.1858,2.1855,2.1853,0,2.0901,2.1055,2.118,2.1222,2.1321,2.138,2.1424,2.1499,2.1558,2.1642,2.1681,2.1777,2.183,2.1904,2.1939,2.1892,2.2092,2.2035,2.2115,2.2114,2.2158,2.2155,2.2368,2.219,2.219,2.2189,2.2189,0,2.1068,2.1176,2.1229,2.1305,2.1426,2.1454,2.1573,2.1616,2.1683,2.1769,2.1773,2.1854,2.1893,2.1981,2.2009,2.2134,2.2157,2.2179,2.2186,2.218,2.2177,2.2216,2.2207,2.2195,2.2194,2.2193,2.2192,0,2.1207,2.1247,2.1383,2.1465,2.1489,2.1574,2.1646,2.1721,2.1757,2.1866,2.1894,2.1951,2.2055,2.2096,2.2222,2.2241,2.2385,2.2383,2.2358,2.2361,2.2439,2.2432,2.2685,2.272,2.2517,2.2519,2.2521,0,2.1312,2.1394,2.1486,2.1543,2.1589,2.1681,2.1742,2.1773,2.1836,2.1932,2.1996,2.2099,2.2183,2.2349,2.2403,2.25,2.2501,2.2583,2.2516,2.2507,2.2504,2.2499,2.2508,2.2596,2.2598,2.2599,2.2601,0,2.1494,2.1509,2.1595,2.1689,2.176,2.1836,2.191,2.1957,2.1999,2.207,2.2175,2.224,2.2369,2.2472,2.2572,2.262,2.2619,2.2621,2.2645,2.2641,2.2624,2.2635,2.2394,2.2616,2.2614,2.2613,2.2612,2.2612,2.162,2.1693,2.1769,2.1865,2.1923,2.1992,2.2067,2.2112,2.22,2.2306,2.232,2.2433,2.2511,2.2645,2.2696,2.2786,2.2765,2.28,2.2809,2.2817,2.2823,2.2608,2.2805,2.2804,2.2804,2.2804,2.2803,0,2.1803,2.1852,2.194,2.2042,2.2118,2.2108,2.2189,2.2254,2.2352,2.2424,2.2507,2.2628,2.2728,2.2789,2.289,2.295,2.2952,2.2976,2.2972,2.2984,2.2835,2.2805,2.2972,2.2972,2.2972,2.2972,2.2972,2.2972,2.1908,2.2031,2.2056,2.2209,2.2257,2.2367,2.2414,2.2478,2.2536,2.2671,2.2753,2.2792,2.286,2.2966,2.3057,2.3073,2.3111,2.3136,2.315,2.3011,2.2994,2.2977,2.2949,2.3144,2.3144,2.3291,2.3293,2.3294]}]]